| time (UTC) | temp F | wind direction | speed MPH | gust MPH | rain 1hr in | rain 24hr in | rain mn in | humidity % | barometer mb |
| 20260507213101 | 61 | 248 | 0.0 | 2.0 | 0.00 | 0.07 | 0.03 | 22 | 1003.9 |
| 20260507212815 | 62 | 267 | 0.0 | 0.0 | 0.00 | 0.07 | 0.03 | 19 | 1004.0 |
| 20260507212049 | 62 | 281 | 0.0 | 0.0 | 0.00 | 0.07 | 0.03 | 21 | 1003.9 |
| 20260507211543 | 62 | 254 | 0.0 | 0.0 | 0.00 | 0.07 | 0.03 | 20 | 1003.9 |
| 20260507211037 | 63 | 302 | 0.0 | 0.0 | 0.00 | 0.07 | 0.03 | 19 | 1003.8 |
| 20260507210531 | 64 | 333 | 0.0 | 0.0 | 0.00 | 0.07 | 0.03 | 18 | 1003.8 |
| 20260507210027 | 64 | 346 | 1.0 | 4.0 | 0.00 | 0.08 | 0.03 | 20 | 1003.8 |
| 20260507205526 | 62 | 347 | 1.0 | 4.0 | 0.00 | 0.08 | 0.03 | 21 | 1003.8 |
| 20260507205249 | 62 | 236 | 1.0 | 5.0 | 0.00 | 0.08 | 0.03 | 23 | 1003.7 |
| 20260507204527 | 62 | 227 | 1.0 | 5.0 | 0.00 | 0.09 | 0.03 | 20 | 1003.6 |
| 20260507204028 | 62 | 257 | 1.0 | 8.0 | 0.00 | 0.09 | 0.03 | 20 | 1003.7 |
| 20260507203526 | 63 | 337 | 2.0 | 8.0 | 0.00 | 0.10 | 0.03 | 20 | 1003.9 |
| 20260507203027 | 64 | 247 | 2.0 | 8.0 | 0.00 | 0.10 | 0.03 | 18 | 1003.7 |
| 20260507202526 | 66 | 207 | 1.0 | 8.0 | 0.00 | 0.10 | 0.03 | 16 | 1003.7 |
| 20260507202026 | 67 | 223 | 1.0 | 3.0 | 0.00 | 0.11 | 0.03 | 17 | 1003.6 |
| 20260507201527 | 67 | 242 | 2.0 | 4.0 | 0.00 | 0.11 | 0.03 | 18 | 1003.8 |
| 20260507201028 | 66 | 225 | 1.0 | 4.0 | 0.00 | 0.11 | 0.03 | 21 | 1003.8 |
| 20260507200745 | 66 | 337 | 0.0 | 3.0 | 0.00 | 0.12 | 0.03 | 18 | 1003.8 |
| 20260507200026 | 65 | 254 | 0.0 | 0.0 | 0.00 | 0.12 | 0.03 | 19 | 1003.8 |
| 20260507195528 | 65 | 278 | 0.0 | 3.0 | 0.00 | 0.12 | 0.03 | 19 | 1003.8 |
| 20260507195254 | 64 | 329 | 1.0 | 3.0 | 0.00 | 0.13 | 0.03 | 22 | 1003.8 |
| 20260507194528 | 63 | 283 | 1.0 | 3.0 | 0.00 | 0.13 | 0.03 | 21 | 1003.9 |
| 20260507194247 | 64 | 261 | 2.0 | 6.0 | 0.00 | 0.13 | 0.03 | 20 | 1003.8 |
| 20260507193521 | 65 | 333 | 1.0 | 6.0 | 0.00 | 0.13 | 0.03 | 20 | 1003.8 |
| 20260507193015 | 65 | 234 | 0.0 | 0.0 | 0.00 | 0.14 | 0.03 | 21 | 1003.9 |
| 20260507192509 | 64 | 355 | 0.0 | 0.0 | 0.00 | 0.14 | 0.03 | 20 | 1003.9 |
| 20260507192005 | 64 | 196 | 0.0 | 0.0 | 0.00 | 0.15 | 0.03 | 21 | 1004.0 |
| 20260507191457 | 64 | 267 | 0.0 | 0.0 | 0.00 | 0.16 | 0.03 | 22 | 1003.9 |
| 20260507191213 | 63 | 268 | 0.0 | 0.0 | 0.00 | 0.16 | 0.03 | 22 | 1004.0 |
| 20260507190706 | 62 | 221 | 0.0 | 0.0 | 0.00 | 0.17 | 0.03 | 24 | 1004.1 |
| 20260507185939 | 61 | 285 | 0.0 | 0.0 | 0.00 | 0.17 | 0.03 | 26 | 1004.2 |
| 20260507185433 | 62 | 0 | 0.0 | 0.0 | 0.00 | 0.18 | 0.03 | 25 | 1004.1 |
| 20260507184927 | 63 | 244 | 1.0 | 6.0 | 0.00 | 0.19 | 0.03 | 24 | 1004.2 |
| 20260507184421 | 65 | 251 | 2.0 | 6.0 | 0.00 | 0.20 | 0.03 | 24 | 1004.1 |
| 20260507184136 | 66 | 299 | 1.0 | 3.0 | 0.00 | 0.21 | 0.03 | 22 | 1004.1 |
| 20260507183409 | 66 | 15 | 1.0 | 3.0 | 0.00 | 0.22 | 0.03 | 24 | 1004.1 |
| 20260507182903 | 64 | 0 | 1.0 | 3.0 | 0.00 | 0.22 | 0.03 | 26 | 1004.1 |
| 20260507182358 | 64 | 263 | 2.0 | 6.0 | 0.00 | 0.24 | 0.03 | 23 | 1004.1 |
| 20260507181851 | 65 | 260 | 1.0 | 6.0 | 0.00 | 0.25 | 0.03 | 23 | 1004.2 |
| 20260507181345 | 65 | 315 | 0.0 | 4.0 | 0.00 | 0.25 | 0.03 | 23 | 1004.1 |
| 20260507180839 | 65 | 265 | 0.0 | 0.0 | 0.00 | 0.25 | 0.03 | 24 | 1004.2 |
| 20260507180333 | 64 | 242 | 0.0 | 0.0 | 0.00 | 0.25 | 0.03 | 22 | 1004.1 |
| 20260507175827 | 64 | 323 | 0.0 | 0.0 | 0.00 | 0.25 | 0.03 | 21 | 1004.2 |
| 20260507175327 | 64 | 269 | 0.0 | 0.0 | 0.00 | 0.25 | 0.03 | 25 | 1004.1 |
| 20260507174824 | 64 | 149 | 0.0 | 0.0 | 0.00 | 0.25 | 0.03 | 28 | 1004.3 |
| 20260507174324 | 63 | 315 | 0.0 | 0.0 | 0.00 | 0.25 | 0.03 | 32 | 1004.2 |
| 20260507173825 | 62 | 275 | 0.0 | 0.0 | 0.00 | 0.25 | 0.03 | 31 | 1004.4 |
| 20260507173324 | 62 | 292 | 0.0 | 0.0 | 0.00 | 0.25 | 0.03 | 34 | 1004.4 |
| 20260507172824 | 63 | 209 | 0.0 | 0.0 | 0.00 | 0.25 | 0.03 | 35 | 1004.4 |
| 20260507172323 | 63 | 169 | 0.0 | 0.0 | 0.00 | 0.25 | 0.03 | 31 | 1004.4 |
| 20260507171824 | 62 | 337 | 0.0 | 0.0 | 0.00 | 0.25 | 0.03 | 30 | 1004.4 |
| 20260507171323 | 62 | 253 | 0.0 | 0.0 | 0.00 | 0.25 | 0.03 | 34 | 1004.5 |
| 20260507171044 | 61 | 190 | 0.0 | 0.0 | 0.00 | 0.25 | 0.03 | 34 | 1004.6 |
| 20260507170324 | 61 | 233 | 0.0 | 0.0 | 0.00 | 0.25 | 0.03 | 34 | 1004.6 |
| 20260507165825 | 62 | 206 | 0.0 | 0.0 | 0.00 | 0.25 | 0.03 | 34 | 1004.6 |
| 20260507165325 | 62 | 187 | 0.0 | 0.0 | 0.00 | 0.25 | 0.03 | 37 | 1004.7 |
| 20260507164824 | 61 | 272 | 1.0 | 5.0 | 0.00 | 0.25 | 0.03 | 34 | 1004.6 |
| 20260507164543 | 62 | 169 | 2.0 | 7.0 | 0.00 | 0.25 | 0.03 | 36 | 1004.8 |
| 20260507163824 | 63 | 196 | 2.0 | 7.0 | 0.00 | 0.25 | 0.03 | 35 | 1004.8 |
| 20260507163545 | 62 | 213 | 2.0 | 10.0 | 0.00 | 0.25 | 0.03 | 38 | 1004.7 |
| 20260507163045 | 61 | 198 | 2.0 | 10.0 | 0.00 | 0.25 | 0.03 | 39 | 1004.8 |
| 20260507162313 | 62 | 289 | 2.0 | 8.0 | 0.00 | 0.25 | 0.03 | 36 | 1004.8 |
| 20260507161807 | 63 | 286 | 1.0 | 8.0 | 0.00 | 0.25 | 0.03 | 35 | 1004.7 |
| 20260507161301 | 63 | 214 | 0.0 | 0.0 | 0.00 | 0.25 | 0.03 | 35 | 1004.8 |
| 20260507160755 | 62 | 317 | 0.0 | 0.0 | 0.00 | 0.25 | 0.03 | 37 | 1004.7 |
| 20260507160249 | 62 | 239 | 0.0 | 0.0 | 0.00 | 0.25 | 0.03 | 38 | 1004.9 |
| 20260507155742 | 61 | 213 | 0.0 | 0.0 | 0.00 | 0.25 | 0.03 | 39 | 1004.9 |
| 20260507155243 | 61 | 203 | 0.0 | 0.0 | 0.00 | 0.25 | 0.03 | 38 | 1005.1 |
| 20260507154740 | 60 | 84 | 0.0 | 0.0 | 0.00 | 0.25 | 0.03 | 40 | 1005.2 |
| 20260507154238 | 59 | 69 | 0.0 | 0.0 | 0.00 | 0.25 | 0.03 | 39 | 1005.3 |
| 20260507153957 | 60 | 28 | 0.0 | 0.0 | 0.00 | 0.25 | 0.03 | 39 | 1005.2 |
| 20260507153239 | 59 | 5 | 0.0 | 0.0 | 0.00 | 0.25 | 0.03 | 38 | 1005.2 |
| 20260507152737 | 59 | 226 | 0.0 | 0.0 | 0.00 | 0.25 | 0.03 | 44 | 1005.3 |
| 20260507152500 | 58 | 193 | 0.0 | 0.0 | 0.00 | 0.25 | 0.03 | 50 | 1005.4 |
| 20260507151735 | 57 | 53 | 0.0 | 0.0 | 0.00 | 0.25 | 0.03 | 47 | 1005.3 |
| 20260507151456 | 57 | 53 | 0.0 | 0.0 | 0.00 | 0.25 | 0.03 | 47 | 1005.3 |
| 20260507150735 | 57 | 53 | 0.0 | 0.0 | 0.00 | 0.25 | 0.03 | 46 | 1005.3 |
| 20260507150500 | 57 | 53 | 0.0 | 0.0 | 0.00 | 0.25 | 0.03 | 47 | 1005.4 |
| 20260507145735 | 57 | 53 | 0.0 | 0.0 | 0.00 | 0.25 | 0.03 | 47 | 1005.3 |
| 20260507145235 | 57 | 53 | 0.0 | 3.0 | 0.00 | 0.25 | 0.03 | 47 | 1005.4 |
| 20260507144730 | 57 | 53 | 1.0 | 4.0 | 0.00 | 0.25 | 0.03 | 48 | 1005.4 |
| 20260507144712 | 58 | 65 | 2.0 | 4.0 | 0.00 | 0.25 | 0.03 | 47 | 1005.4 |
| 20260507143730 | 58 | 59 | 1.0 | 4.0 | 0.00 | 0.25 | 0.03 | 48 | 1005.4 |
| 20260507143231 | 58 | 55 | 0.0 | 0.0 | 0.00 | 0.25 | 0.03 | 50 | 1005.5 |
| 20260507142730 | 58 | 57 | 0.0 | 0.0 | 0.00 | 0.25 | 0.03 | 49 | 1005.5 |
| 20260507142230 | 57 | 66 | 0.0 | 0.0 | 0.00 | 0.25 | 0.03 | 49 | 1005.4 |
| 20260507141730 | 57 | 108 | 0.0 | 0.0 | 0.00 | 0.25 | 0.03 | 52 | 1005.5 |
| 20260507141230 | 58 | 61 | 0.0 | 0.0 | 0.00 | 0.25 | 0.03 | 52 | 1005.6 |
| 20260507140731 | 58 | 81 | 0.0 | 0.0 | 0.00 | 0.25 | 0.03 | 53 | 1005.7 |
| 20260507140447 | 57 | 205 | 0.0 | 0.0 | 0.00 | 0.25 | 0.03 | 56 | 1005.8 |
| 20260507135727 | 56 | 205 | 0.0 | 0.0 | 0.00 | 0.25 | 0.03 | 55 | 1005.7 |
| 20260507135226 | 56 | 302 | 0.0 | 0.0 | 0.00 | 0.25 | 0.03 | 56 | 1005.8 |
| 20260507135213 | 56 | 169 | 0.0 | 0.0 | 0.00 | 0.25 | 0.03 | 56 | 1005.8 |
| 20260507134451 | 55 | 55 | 0.0 | 0.0 | 0.00 | 0.25 | 0.03 | 55 | 1005.8 |
| 20260507133726 | 55 | 173 | 0.0 | 0.0 | 0.00 | 0.25 | 0.03 | 57 | 1005.8 |
| 20260507133225 | 55 | 202 | 0.0 | 0.0 | 0.00 | 0.25 | 0.03 | 60 | 1006.0 |
| 20260507132726 | 54 | 141 | 0.0 | 0.0 | 0.00 | 0.25 | 0.03 | 58 | 1006.0 |
| 20260507132227 | 54 | 24 | 0.0 | 0.0 | 0.00 | 0.25 | 0.03 | 60 | 1006.0 |
| 20260507131947 | 54 | 329 | 0.0 | 0.0 | 0.00 | 0.25 | 0.03 | 61 | 1006.2 |
| 20260507131225 | 54 | 323 | 0.0 | 0.0 | 0.00 | 0.25 | 0.03 | 59 | 1006.1 |
| 20260507130723 | 53 | 355 | 0.0 | 0.0 | 0.00 | 0.25 | 0.03 | 63 | 1006.0 |
| 20260507130221 | 53 | 321 | 0.0 | 0.0 | 0.00 | 0.25 | 0.03 | 63 | 1006.1 |
| 20260507125721 | 53 | 179 | 0.0 | 0.0 | 0.00 | 0.25 | 0.03 | 65 | 1006.1 |
| 20260507125217 | 53 | 189 | 0.0 | 0.0 | 0.00 | 0.25 | 0.03 | 65 | 1006.1 |
| 20260507124718 | 53 | 211 | 0.0 | 0.0 | 0.00 | 0.25 | 0.03 | 66 | 1006.1 |
| 20260507124219 | 53 | 192 | 0.0 | 0.0 | 0.00 | 0.25 | 0.03 | 66 | 1006.1 |
| 20260507123718 | 52 | 355 | 0.0 | 0.0 | 0.00 | 0.25 | 0.03 | 68 | 1006.1 |
| 20260507123438 | 52 | 175 | 0.0 | 0.0 | 0.00 | 0.25 | 0.03 | 68 | 1006.2 |
| 20260507122717 | 51 | 175 | 0.0 | 0.0 | 0.00 | 0.25 | 0.03 | 69 | 1006.2 |
| 20260507122215 | 51 | 32 | 0.0 | 2.0 | 0.00 | 0.25 | 0.03 | 68 | 1006.2 |
| 20260507121712 | 50 | 32 | 1.0 | 4.0 | 0.00 | 0.25 | 0.03 | 70 | 1006.2 |
| 20260507121433 | 50 | 32 | 1.0 | 4.0 | 0.00 | 0.25 | 0.03 | 72 | 1006.1 |
| 20260507120710 | 49 | 265 | 0.0 | 2.0 | 0.00 | 0.25 | 0.03 | 72 | 1006.2 |
| 20260507120211 | 48 | 31 | 0.0 | 0.0 | 0.00 | 0.25 | 0.03 | 75 | 1006.2 |
| 20260507115709 | 48 | 31 | 0.0 | 0.0 | 0.00 | 0.25 | 0.03 | 76 | 1006.2 |
| 20260507115209 | 47 | 31 | 0.0 | 0.0 | 0.00 | 0.25 | 0.03 | 76 | 1006.4 |
| 20260507114709 | 47 | 31 | 0.0 | 0.0 | 0.00 | 0.25 | 0.03 | 78 | 1006.4 |
| 20260507114202 | 46 | 31 | 0.0 | 0.0 | 0.00 | 0.25 | 0.03 | 78 | 1006.2 |
| 20260507113656 | 46 | 31 | 0.0 | 0.0 | 0.00 | 0.25 | 0.03 | 78 | 1006.3 |
| 20260507113150 | 46 | 31 | 0.0 | 0.0 | 0.00 | 0.25 | 0.03 | 79 | 1006.2 |
| 20260507112644 | 45 | 31 | 0.0 | 0.0 | 0.00 | 0.25 | 0.03 | 79 | 1006.1 |
| 20260507112138 | 45 | 31 | 0.0 | 0.0 | 0.00 | 0.25 | 0.03 | 79 | 1006.1 |
| 20260507111632 | 45 | 31 | 0.0 | 0.0 | 0.00 | 0.25 | 0.03 | 79 | 1006.3 |
| 20260507111126 | 45 | 31 | 0.0 | 0.0 | 0.00 | 0.25 | 0.03 | 79 | 1006.4 |
| 20260507110838 | 44 | 31 | 0.0 | 0.0 | 0.00 | 0.25 | 0.03 | 79 | 1006.5 |
| 20260507110114 | 44 | 31 | 0.0 | 0.0 | 0.00 | 0.25 | 0.03 | 79 | 1006.6 |
| 20260507105608 | 44 | 31 | 0.0 | 0.0 | 0.00 | 0.25 | 0.03 | 79 | 1006.4 |
| 20260507105101 | 45 | 31 | 0.0 | 0.0 | 0.00 | 0.25 | 0.03 | 79 | 1006.3 |
| 20260507104816 | 45 | 31 | 0.0 | 0.0 | 0.00 | 0.25 | 0.03 | 79 | 1006.3 |
| 20260507104050 | 45 | 31 | 0.0 | 0.0 | 0.00 | 0.25 | 0.03 | 79 | 1006.6 |
| 20260507103544 | 45 | 31 | 0.0 | 0.0 | 0.00 | 0.25 | 0.03 | 79 | 1006.6 |
| 20260507103038 | 45 | 31 | 0.0 | 0.0 | 0.00 | 0.25 | 0.03 | 79 | 1006.5 |
| 20260507102532 | 45 | 31 | 0.0 | 0.0 | 0.00 | 0.25 | 0.03 | 79 | 1006.5 |
| 20260507102026 | 45 | 31 | 0.0 | 0.0 | 0.00 | 0.25 | 0.03 | 79 | 1006.5 |
| 20260507101743 | 44 | 31 | 0.0 | 0.0 | 0.00 | 0.25 | 0.03 | 79 | 1006.8 |
| 20260507101013 | 44 | 31 | 0.0 | 0.0 | 0.00 | 0.25 | 0.03 | 79 | 1006.5 |
| 20260507100508 | 45 | 31 | 0.0 | 0.0 | 0.00 | 0.25 | 0.03 | 78 | 1006.7 |
| 20260507100003 | 45 | 31 | 0.0 | 0.0 | 0.00 | 0.25 | 0.03 | 78 | 1006.6 |
| 20260507095456 | 45 | 31 | 0.0 | 0.0 | 0.00 | 0.25 | 0.03 | 78 | 1006.3 |
| 20260507094950 | 45 | 31 | 0.0 | 0.0 | 0.00 | 0.25 | 0.03 | 78 | 1006.7 |
| 20260507094444 | 45 | 31 | 0.0 | 0.0 | 0.00 | 0.25 | 0.03 | 78 | 1006.3 |
| 20260507093938 | 45 | 31 | 0.0 | 0.0 | 0.00 | 0.25 | 0.03 | 78 | 1006.3 |
| 20260507093432 | 45 | 31 | 0.0 | 0.0 | 0.00 | 0.25 | 0.03 | 78 | 1006.1 |
| 20260507093148 | 45 | 31 | 0.0 | 0.0 | 0.00 | 0.25 | 0.03 | 78 | 1006.0 |
| 20260507092420 | 45 | 31 | 0.0 | 0.0 | 0.00 | 0.25 | 0.03 | 77 | 1005.8 |
| 20260507091915 | 45 | 31 | 0.0 | 0.0 | 0.00 | 0.25 | 0.03 | 77 | 1005.6 |
| 20260507091408 | 45 | 31 | 0.0 | 0.0 | 0.00 | 0.25 | 0.03 | 77 | 1006.0 |
| 20260507091122 | 46 | 31 | 0.0 | 0.0 | 0.00 | 0.25 | 0.03 | 77 | 1005.6 |
| 20260507090618 | 46 | 31 | 0.0 | 0.0 | 0.00 | 0.25 | 0.03 | 77 | 1006.0 |
| 20260507090112 | 46 | 31 | 0.0 | 0.0 | 0.00 | 0.25 | 0.03 | 76 | 1005.8 |
| 20260507085344 | 46 | 31 | 0.0 | 0.0 | 0.00 | 0.25 | 0.03 | 76 | 1006.1 |
| 20260507084838 | 46 | 31 | 0.0 | 0.0 | 0.00 | 0.25 | 0.03 | 76 | 1006.1 |
| 20260507084553 | 46 | 31 | 0.0 | 0.0 | 0.00 | 0.25 | 0.03 | 76 | 1005.9 |
| 20260507083826 | 46 | 31 | 0.0 | 0.0 | 0.00 | 0.25 | 0.03 | 76 | 1006.1 |
| 20260507083320 | 46 | 31 | 0.0 | 0.0 | 0.00 | 0.25 | 0.03 | 76 | 1006.4 |
| 20260507082814 | 46 | 31 | 0.0 | 0.0 | 0.00 | 0.25 | 0.03 | 76 | 1006.2 |
| 20260507082308 | 46 | 31 | 0.0 | 1.0 | 0.00 | 0.25 | 0.03 | 77 | 1006.2 |
| 20260507082024 | 46 | 31 | 0.0 | 2.0 | 0.00 | 0.25 | 0.03 | 77 | 1005.9 |
| 20260507081256 | 47 | 31 | 0.0 | 2.0 | 0.00 | 0.25 | 0.03 | 76 | 1005.9 |
| 20260507080750 | 47 | 31 | 0.0 | 2.0 | 0.00 | 0.25 | 0.03 | 77 | 1005.6 |
| 20260507080244 | 47 | 108 | 0.0 | 2.0 | 0.00 | 0.25 | 0.03 | 76 | 1006.1 |
| 20260507075738 | 47 | 140 | 0.0 | 2.0 | 0.00 | 0.25 | 0.03 | 77 | 1005.9 |
| 20260507075232 | 47 | 223 | 0.0 | 3.0 | 0.00 | 0.25 | 0.03 | 77 | 1005.7 |
| 20260507074726 | 47 | 223 | 1.0 | 3.0 | 0.00 | 0.25 | 0.03 | 77 | 1005.6 |
| 20260507074220 | 47 | 311 | 1.0 | 4.0 | 0.00 | 0.25 | 0.03 | 77 | 1005.5 |
| 20260507073714 | 47 | 306 | 1.0 | 4.0 | 0.00 | 0.25 | 0.03 | 77 | 1005.8 |
| 20260507073208 | 47 | 240 | 1.0 | 4.0 | 0.00 | 0.25 | 0.03 | 77 | 1005.5 |
| 20260507072703 | 48 | 347 | 1.0 | 3.0 | 0.00 | 0.25 | 0.03 | 77 | 1005.6 |
| 20260507072156 | 48 | 15 | 1.0 | 3.0 | 0.00 | 0.25 | 0.03 | 78 | 1005.6 |
| 20260507071650 | 49 | 129 | 0.0 | 3.0 | 0.00 | 0.25 | 0.03 | 79 | 1005.5 |
| 20260507071144 | 49 | 5 | 0.0 | 1.0 | 0.00 | 0.25 | 0.03 | 79 | 1005.6 |
| 20260507070638 | 49 | 5 | 0.0 | 0.0 | 0.00 | 0.25 | 0.03 | 79 | 1005.6 |
| 20260507070132 | 49 | 5 | 0.0 | 0.0 | 0.00 | 0.25 | 0.03 | 79 | 1005.4 |
| 20260507065627 | 49 | 5 | 0.0 | 1.0 | 0.00 | 0.25 | 0.03 | 79 | 1005.5 |
| 20260507065120 | 49 | 5 | 0.0 | 1.0 | 0.00 | 0.25 | 0.03 | 79 | 1005.2 |
| 20260507064614 | 49 | 5 | 0.0 | 0.0 | 0.00 | 0.25 | 0.03 | 79 | 1005.3 |
| 20260507064108 | 49 | 5 | 0.0 | 0.0 | 0.00 | 0.25 | 0.03 | 79 | 1005.2 |
| 20260507063602 | 49 | 5 | 0.0 | 0.0 | 0.00 | 0.25 | 0.03 | 79 | 1005.2 |
| 20260507063056 | 49 | 5 | 0.0 | 0.0 | 0.00 | 0.25 | 0.03 | 79 | 1005.1 |
| 20260507062550 | 49 | 5 | 0.0 | 0.0 | 0.00 | 0.25 | 0.03 | 79 | 1004.9 |
| 20260507062310 | 49 | 5 | 0.0 | 0.0 | 0.00 | 0.25 | 0.03 | 79 | 1004.7 |
| 20260507061538 | 49 | 5 | 0.0 | 0.0 | 0.01 | 0.25 | 0.03 | 79 | 1004.9 |
| 20260507061256 | 49 | 5 | 0.0 | 0.0 | 0.01 | 0.25 | 0.03 | 79 | 1004.9 |
| 20260507060753 | 49 | 5 | 0.0 | 0.0 | 0.01 | 0.25 | 0.03 | 79 | 1005.0 |
| 20260507060026 | 50 | 5 | 0.0 | 1.0 | 0.01 | 0.25 | 0.03 | 79 | 1004.8 |
| 20260507055526 | 50 | 5 | 0.0 | 1.0 | 0.01 | 0.25 | 0.03 | 79 | 1004.8 |
| 20260507055025 | 50 | 5 | 0.0 | 1.0 | 0.01 | 0.25 | 0.03 | 79 | 1004.7 |
| 20260507054525 | 50 | 5 | 0.0 | 0.0 | 0.01 | 0.25 | 0.03 | 79 | 1004.7 |
| 20260507054026 | 50 | 5 | 0.0 | 0.0 | 0.01 | 0.25 | 0.03 | 79 | 1004.7 |
| 20260507053525 | 50 | 5 | 0.0 | 1.0 | 0.01 | 0.25 | 0.03 | 78 | 1004.7 |
| 20260507053024 | 50 | 5 | 0.0 | 1.0 | 0.01 | 0.25 | 0.03 | 78 | 1004.7 |
| 20260507052526 | 51 | 5 | 0.0 | 1.0 | 0.01 | 0.25 | 0.03 | 78 | 1004.6 |
| 20260507052252 | 51 | 5 | 0.0 | 2.0 | 0.01 | 0.25 | 0.03 | 78 | 1004.7 |
| 20260507051522 | 51 | 5 | 0.0 | 2.0 | 0.00 | 0.24 | 0.02 | 78 | 1004.7 |
| 20260507051023 | 51 | 339 | 0.0 | 0.0 | 0.01 | 0.24 | 0.02 | 78 | 1004.7 |
| 20260507050523 | 52 | 72 | 0.0 | 0.0 | 0.01 | 0.24 | 0.02 | 79 | 1004.7 |
| 20260507050024 | 52 | 322 | 0.0 | 0.0 | 0.02 | 0.24 | 0.02 | 79 | 1004.6 |
| 20260507045524 | 52 | 103 | 0.0 | 0.0 | 0.03 | 0.24 | 0.02 | 79 | 1004.5 |
| 20260507045024 | 53 | 105 | 0.0 | 0.0 | 0.05 | 0.24 | 0.02 | 78 | 1004.5 |
| 20260507044524 | 53 | 92 | 0.0 | 2.0 | 0.05 | 0.24 | 0.02 | 78 | 1004.5 |
| 20260507044024 | 53 | 48 | 1.0 | 2.0 | 0.05 | 0.24 | 0.02 | 78 | 1004.5 |
| 20260507043524 | 54 | 47 | 0.0 | 3.0 | 0.05 | 0.24 | 0.02 | 78 | 1004.5 |
| 20260507043248 | 54 | 333 | 0.0 | 3.0 | 0.05 | 0.24 | 0.02 | 78 | 1004.4 |
| 20260507042744 | 55 | 240 | 1.0 | 4.0 | 0.05 | 0.24 | 0.02 | 78 | 1004.4 |
| 20260507042022 | 56 | 240 | 1.0 | 4.0 | 0.05 | 0.24 | 0.02 | 79 | 1004.4 |
| 20260507041745 | 56 | 244 | 0.0 | 2.0 | 0.05 | 0.24 | 0.02 | 80 | 1004.3 |
| 20260507041021 | 56 | 244 | 0.0 | 1.0 | 0.04 | 0.23 | 0.01 | 79 | 1004.1 |
| 20260507040520 | 56 | 244 | 0.0 | 1.0 | 0.04 | 0.23 | 0.01 | 79 | 1004.2 |
| 20260507040247 | 56 | 244 | 1.0 | 3.0 | 0.03 | 0.22 | 0.00 | 80 | 1004.1 |
| 20260507035516 | 57 | 244 | 1.0 | 3.0 | 0.01 | 0.20 | 0.21 | 80 | 1004.1 |
| 20260507035235 | 57 | 334 | 1.0 | 3.0 | 0.00 | 0.19 | 0.19 | 80 | 1004.2 |
| 20260507034505 | 57 | 221 | 0.0 | 2.0 | 0.00 | 0.19 | 0.19 | 80 | 1004.2 |
| 20260507033958 | 57 | 220 | 0.0 | 2.0 | 0.00 | 0.19 | 0.19 | 80 | 1004.0 |
| 20260507033452 | 57 | 220 | 0.0 | 0.0 | 0.00 | 0.19 | 0.19 | 81 | 1003.7 |
| 20260507032947 | 57 | 155 | 0.0 | 0.0 | 0.00 | 0.19 | 0.19 | 81 | 1003.5 |
| 20260507032440 | 56 | 155 | 0.0 | 0.0 | 0.00 | 0.19 | 0.19 | 80 | 1003.5 |
| 20260507031934 | 56 | 155 | 0.0 | 0.0 | 0.00 | 0.19 | 0.19 | 80 | 1003.4 |
| 20260507031646 | 56 | 155 | 0.0 | 0.0 | 0.00 | 0.19 | 0.19 | 80 | 1003.4 |
| 20260507030922 | 56 | 155 | 0.0 | 0.0 | 0.00 | 0.19 | 0.19 | 80 | 1003.4 |
| 20260507030416 | 56 | 155 | 0.0 | 0.0 | 0.00 | 0.19 | 0.19 | 80 | 1003.4 |
| 20260507025917 | 56 | 155 | 0.0 | 0.0 | 0.00 | 0.19 | 0.19 | 80 | 1003.5 |
| 20260507025418 | 56 | 155 | 0.0 | 0.0 | 0.00 | 0.19 | 0.19 | 80 | 1003.3 |
| 20260507024915 | 56 | 155 | 0.0 | 0.0 | 0.00 | 0.19 | 0.19 | 80 | 1003.5 |
| 20260507024633 | 56 | 155 | 0.0 | 0.0 | 0.00 | 0.19 | 0.19 | 80 | 1003.4 |
| 20260507023914 | 56 | 155 | 0.0 | 0.0 | 0.00 | 0.19 | 0.19 | 80 | 1003.5 |
| 20260507023413 | 56 | 155 | 0.0 | 0.0 | 0.00 | 0.19 | 0.19 | 80 | 1003.5 |
| 20260507023132 | 56 | 155 | 0.0 | 0.0 | 0.00 | 0.19 | 0.19 | 80 | 1003.7 |
| 20260507022412 | 56 | 155 | 0.0 | 0.0 | 0.00 | 0.19 | 0.19 | 80 | 1003.7 |
| 20260507021910 | 56 | 155 | 0.0 | 0.0 | 0.00 | 0.19 | 0.19 | 80 | 1003.8 |
| 20260507021410 | 56 | 155 | 0.0 | 0.0 | 0.00 | 0.19 | 0.19 | 80 | 1003.8 |
| 20260507020908 | 56 | 155 | 0.0 | 0.0 | 0.00 | 0.19 | 0.19 | 80 | 1003.6 |
| 20260507020406 | 56 | 155 | 0.0 | 0.0 | 0.00 | 0.19 | 0.19 | 80 | 1003.7 |
| 20260507020126 | 56 | 155 | 0.0 | 0.0 | 0.00 | 0.19 | 0.19 | 80 | 1003.6 |
| 20260507015404 | 56 | 155 | 0.0 | 0.0 | 0.00 | 0.19 | 0.19 | 80 | 1003.8 |
| 20260507014900 | 56 | 155 | 0.0 | 0.0 | 0.00 | 0.19 | 0.19 | 80 | 1003.8 |
| 20260507014402 | 56 | 155 | 0.0 | 0.0 | 0.00 | 0.19 | 0.19 | 80 | 1003.8 |
| 20260507013858 | 56 | 155 | 0.0 | 2.0 | 0.00 | 0.19 | 0.19 | 80 | 1003.8 |
| 20260507013618 | 56 | 155 | 0.0 | 2.0 | 0.00 | 0.19 | 0.19 | 80 | 1003.8 |
| 20260507012856 | 56 | 155 | 0.0 | 0.0 | 0.00 | 0.19 | 0.19 | 80 | 1003.9 |
| 20260507012357 | 56 | 155 | 0.0 | 1.0 | 0.00 | 0.19 | 0.19 | 80 | 1004.0 |
| 20260507012120 | 56 | 155 | 0.0 | 2.0 | 0.00 | 0.19 | 0.19 | 80 | 1004.0 |
| 20260507011358 | 56 | 155 | 1.0 | 2.0 | 0.00 | 0.19 | 0.19 | 80 | 1004.0 |
| 20260507011117 | 56 | 155 | 1.0 | 2.0 | 0.00 | 0.19 | 0.19 | 79 | 1003.9 |
| 20260507010356 | 56 | 155 | 0.0 | 2.0 | 0.00 | 0.19 | 0.19 | 79 | 1004.1 |
| 20260507005859 | 56 | 155 | 0.0 | 2.0 | 0.00 | 0.19 | 0.19 | 79 | 1004.1 |
| 20260507005354 | 56 | 155 | 1.0 | 2.0 | 0.00 | 0.19 | 0.19 | 79 | 1004.2 |
| 20260507004853 | 56 | 155 | 1.0 | 3.0 | 0.00 | 0.19 | 0.19 | 79 | 1004.1 |
| 20260507004354 | 56 | 155 | 1.0 | 3.0 | 0.00 | 0.19 | 0.19 | 79 | 1004.1 |
| 20260507003854 | 56 | 155 | 1.0 | 3.0 | 0.00 | 0.19 | 0.19 | 79 | 1004.1 |
| 20260507003356 | 56 | 155 | 1.0 | 2.0 | 0.00 | 0.19 | 0.19 | 79 | 1004.1 |
| 20260507003118 | 56 | 155 | 1.0 | 2.0 | 0.00 | 0.19 | 0.19 | 79 | 1004.0 |
| 20260507002354 | 56 | 155 | 1.0 | 2.0 | 0.00 | 0.19 | 0.19 | 79 | 1004.0 |
| 20260507001852 | 56 | 155 | 1.0 | 2.0 | 0.00 | 0.19 | 0.19 | 79 | 1004.0 |
| 20260507001354 | 56 | 155 | 1.0 | 4.0 | 0.00 | 0.19 | 0.19 | 79 | 1004.0 |
| 20260507000848 | 57 | 155 | 1.0 | 4.0 | 0.00 | 0.19 | 0.19 | 79 | 1004.0 |
| 20260507000350 | 57 | 146 | 1.0 | 3.0 | 0.00 | 0.19 | 0.19 | 79 | 1004.0 |
| 20260506235848 | 57 | 146 | 1.0 | 4.0 | 0.00 | 0.19 | 0.19 | 79 | 1003.9 |
| 20260506235349 | 57 | 172 | 1.0 | 4.0 | 0.00 | 0.19 | 0.19 | 79 | 1004.0 |
| 20260506234849 | 57 | 159 | 0.0 | 2.0 | 0.00 | 0.19 | 0.19 | 79 | 1003.9 |
| 20260506234611 | 57 | 159 | 0.0 | 0.0 | 0.00 | 0.19 | 0.19 | 79 | 1004.0 |
| 20260506233846 | 57 | 159 | 0.0 | 0.0 | 0.00 | 0.19 | 0.19 | 79 | 1003.8 |
| 20260506233343 | 57 | 159 | 0.0 | 0.0 | 0.00 | 0.19 | 0.19 | 79 | 1003.8 |
| 20260506232842 | 57 | 159 | 0.0 | 0.0 | 0.00 | 0.19 | 0.19 | 79 | 1003.8 |
| 20260506232338 | 57 | 159 | 0.0 | 0.0 | 0.00 | 0.19 | 0.19 | 79 | 1003.9 |
| 20260506232057 | 57 | 142 | 0.0 | 0.0 | 0.00 | 0.19 | 0.19 | 79 | 1003.9 |
| 20260506231553 | 57 | 103 | 0.0 | 0.0 | 0.00 | 0.19 | 0.19 | 79 | 1004.0 |
| 20260506230836 | 58 | 165 | 0.0 | 0.0 | 0.00 | 0.19 | 0.19 | 79 | 1004.0 |
| 20260506230336 | 58 | 165 | 0.0 | 0.0 | 0.00 | 0.19 | 0.19 | 79 | 1003.8 |
| 20260506230055 | 58 | 165 | 0.0 | 0.0 | 0.00 | 0.19 | 0.19 | 79 | 1003.9 |
| 20260506225333 | 58 | 165 | 0.0 | 0.0 | 0.00 | 0.19 | 0.19 | 79 | 1004.1 |
| 20260506224828 | 58 | 165 | 0.0 | 0.0 | 0.01 | 0.19 | 0.19 | 79 | 1004.1 |
| 20260506224321 | 58 | 165 | 0.0 | 0.0 | 0.01 | 0.19 | 0.19 | 79 | 1004.2 |
| 20260506223815 | 58 | 132 | 0.0 | 0.0 | 0.01 | 0.19 | 0.19 | 79 | 1004.2 |
| 20260506223309 | 58 | 158 | 0.0 | 0.0 | 0.01 | 0.19 | 0.19 | 78 | 1004.3 |
| 20260506222803 | 58 | 160 | 0.0 | 0.0 | 0.01 | 0.19 | 0.19 | 78 | 1004.2 |
| 20260506222257 | 58 | 144 | 0.0 | 0.0 | 0.01 | 0.19 | 0.19 | 78 | 1004.2 |
| 20260506222234 | 58 | 144 | 0.0 | 0.0 | 0.01 | 0.19 | 0.19 | 79 | 1004.2 |
| 20260506221245 | 58 | 157 | 0.0 | 0.0 | 0.01 | 0.19 | 0.19 | 79 | 1004.4 |
| 20260506221007 | 58 | 140 | 0.0 | 0.0 | 0.01 | 0.19 | 0.19 | 78 | 1004.4 |
| 20260506220233 | 58 | 88 | 0.0 | 0.0 | 0.02 | 0.19 | 0.19 | 78 | 1004.4 |
| 20260506215726 | 58 | 151 | 0.0 | 0.0 | 0.02 | 0.19 | 0.19 | 78 | 1004.5 |
| 20260506215221 | 58 | 129 | 0.0 | 0.0 | 0.01 | 0.18 | 0.18 | 79 | 1004.5 |
| 20260506214715 | 59 | 128 | 0.0 | 0.0 | 0.02 | 0.18 | 0.18 | 79 | 1004.5 |
| 20260506214209 | 59 | 128 | 0.0 | 0.0 | 0.02 | 0.18 | 0.18 | 78 | 1004.5 |
| 20260506213703 | 59 | 192 | 0.0 | 0.0 | 0.02 | 0.18 | 0.18 | 79 | 1004.6 |